STARLINK-1942, 46794

Orbit data source: Space-Track

STARLINK-1942, 46794 is a payload satellite owned by SpaceX/Seattle (US) in LEO that was launched on Sat, 24 Oct 2020 UTC via an FALCON 9 launch vehicle from the Air Force Eastern Test Range (AFETR). Payload-class satellites include a variety of spacecraft equipped with specific instruments for various scientific and technological missions. These include communications satellites like Starlink; space stations such as the ISS; scientific satellites like the Hubble; Earth observation satellites from companies like Planet Labs, Umbra, and HawkEye 360; GPS; miniature CubeSats for education and research; and military/defense satellites.

Loading next visibility...
Identifier
46794, 2020-074BH
Orbit
LEO
Country
Flag of USUS
Related business
Manufacturer
SpaceX/Seattle
Mission
Operational Commercial Communications
Bus & Motor
STARLINK, Unknown motor
Mass
260 kg wet, ~248 kg dry
Launch date (UTC)
2020-10-24 (5 years ago)
Launch vehicle
FALCON 9
Launch site
Air Force Eastern Test Range (AFETR)
Object type
Payload
Rocket body
Debris
Shape & HBR
Box + 1 Pan, 10.1 m
Radar Cross Section
13.562 m², Large (>1 m²)

Expand to show TLE details & history
Last TLE update: 9 hours ago

TLE from 9 hours ago
0 STARLINK-1942
1 46794U 20074BH  25304.33336806  .00018839  00000-0  10906-2 0  9996
2 46794  53.0522 182.0222 0001428  89.4979   9.1630 15.12275106  5742
Epoch: 2025-10-31T08:00Z
TLE epoch observation values (Epoch: 2025-10-31T08:00:03.000Z)
Latitude
52.34228°
Longitude
126.37051°
Altitude
534.642 km
Speed
7.602 km/s
True Right ascension
19h 05m 02s
True Declination
52° 10' 13"
Sunlit
Object was in daylight at epoch
Visualization orbit readout
Latitude
Unknown
Longitude
Unknown
Altitude
Unknown
Speed
Unknown
Apparent Right ascension
Unknown
Apparent Declination
Unknown
Sunlit
N/A
Visualization observer readout
Local Sidereal Time
13:08:42
Azimuth
Unknown
Elevation
Unknown
Doppler factor
Unknown
Orbital elements
Apogee altitude
530.522 km
Perigee altitude
528.549 km
Semi-major axis
6,907.672 km
Eccentricity
0.00014
Inclination
53.0522°
RAAN
182.0222°
Arg. of periapsis
89.4979°
True anomaly
9.16561°
Mean anomaly
9.163°
Eccentric anomaly
9.1643°
Mean motion
3.78047 °/min
Orbital period
95.23 mins
BSTAR
0.0010906
Loading maneuver chart data...
Computing Atmospheric mass density...

Documentation

Showing up to 5 results
|